Regional Weather Roundup
Issued by NWS

Home | Current Version | Previous Version | Text Only | Print | Product List | Glossary On
Versions: 1 2 3 4 5 6 7 8 9 10 11 12 13 14 15 16 17 18 19 20 21 22 23 24 25 26 27 28 29 30 31 32 33 34 35 36 37 38 39 40 41 42 43 44 45 46 47 48 49 50
000
ASUS45 KABQ 302010
RWRNM
NEW MEXICO REGIONAL WEATHER ROUNDUP
NATIONAL WEATHER SERVICE ALBUQUERQUE NM
200 PM MDT THU JUL 30 2015

NOTE: "FAIR" MEANS FEW OR NO CLOUDS BELOW 12,000 FEET AGL WITH NO
       SIGNIFICANT WEATHER OR OBSTRUCTIONS TO VISION.

      THIS PRODUCT IS RELEASED AS TWO VERSIONS.  ONE VERSION NEAR
      THE TOP OF THE HOUR CONTAINING PRELIMINARY DATA FROM ALBUQUERQUE
      AND OTHER STATIONS.  A FINAL VERSION WITH ADDITIONAL DATA IS
      ISSUED ABOUT 10 MINUTES AFTER THE HOUR.

NMZ501-503-504-510>518-302100-
NORTHWEST PLATEAU/NORTHCENTRAL MOUNTAINS

CITY           SKY/WX    TMP DP  RH WIND       PRES   REMARKS
FARMINGTON     MOSUNNY   86  53  32 W9        30.31F
LOS ALAMOS     CLOUDY    65  56  73 CALM      30.50F
SANTA FE       CLOUDY    72  55  55 NE5       30.43F
TAOS           CLOUDY    72  46  40 CALM      30.49F
ANGEL FIRE     CLOUDY    65  52  62 W6        30.56S

$$
NMZ402-403-502-505>509-302100-
WESTCENTRAL MOUNTAINS/SOUTHWEST MOUNTAINS

CITY           SKY/WX    TMP DP  RH WIND       PRES   REMARKS
GALLUP         CLOUDY    74  54  49 CALM      30.40F
GRANTS         CLOUDY    68  60  75 CALM      30.46S
SILVER CITY      N/A     77  57  50 S5G16     30.36F

$$
NMZ407-409-411-412-302100-
SOUTHERN DESERTS

CITY           SKY/WX    TMP DP  RH WIND       PRES   REMARKS
LORDSBURG      FAIR      82  63  51 SE9       30.25F
DEMING         SUNNY     82  59  45 MISG      30.27F
LAS CRUCES     SUNNY     78  62  56 NE5       30.29F
ALAMOGORDO     MOSUNNY   82  61  47 W9        30.26F
T OR C         MOSUNNY   79  61  53 N5        30.29F

$$
NMZ519>523-302100-
CENTRAL VALLEYS/CENTRAL HIGHLANDS

CITY           SKY/WX    TMP DP  RH WIND       PRES   REMARKS
ALBUQUERQUE    PTSUNNY   78  56  46 NE5       30.36F
DOUBLE EAGLE   PTSUNNY   72  57  60 N7        30.40F
MORIARTY ARPT    N/A     75  58  56 CALM      30.43F
CLINES CORNERS MOSUNNY   71  57  61 E3        30.46F
BELEN          FAIR      79  56  45 N7        30.35F
SOCORRO        FAIR      80  58  48 N5        30.31F

$$
NMZ524>526-539-540-302100-
SOUTHCENTRAL MOUNTAINS

CITY           SKY/WX    TMP DP  RH WIND       PRES   REMARKS
RUIDOSO          N/A    N/A N/A N/A MISG        N/A

$$
NMZ527>531-302100-
NORTHEAST HIGHLANDS/NORTHEAST PLAINS

CITY           SKY/WX    TMP DP  RH WIND       PRES   REMARKS
LAS VEGAS      CLOUDY    67  57  70 SW10      30.47F
RATON          PTSUNNY   72  55  55 SW10      30.41S
CLAYTON        LGT RAIN  73  59  61 S9        30.36F

$$
NMZ532>537-302100-
EASTCENTRAL PLAINS

CITY           SKY/WX    TMP DP  RH WIND       PRES   REMARKS
TUCUMCARI      PTSUNNY   82  62  50 VRB3      30.30F
CANNON AFB     PTSUNNY   83  62  49 NE8       30.30F
CLOVIS AIRPORT PTSUNNY   84  63  48 NE6       30.32F

$$
NMZ028-029-538-302100-
SOUTHEAST PLAINS

CITY           SKY/WX    TMP DP  RH WIND       PRES   REMARKS
ROSWELL        SUNNY     91  60  35 MISG      30.21F
ARTESIA        SUNNY     90  61  37 VRB7G18   30.21F
CARLSBAD       SUNNY     94  57  28 E8        30.17F
HOBBS          PTSUNNY   91  57  31 E9G18     30.23F


$$


USA.gov is the U.S. government's official web portal to all federal, state and local government web resources and services.